Year,Month,Day,Hour,Minute,Value (Times are PST for temperature in C)
2018,05,12,00,00,10.70
2018,05,12,00,01,10.70
2018,05,12,00,02,10.70
2018,05,12,00,03,10.60
2018,05,12,00,04,10.60
2018,05,12,00,05,10.60
2018,05,12,00,06,10.60
2018,05,12,00,07,10.60
2018,05,12,00,08,10.60
2018,05,12,00,09,10.60
2018,05,12,00,10,10.60
2018,05,12,00,11,10.60
2018,05,12,00,12,10.50
2018,05,12,00,13,10.50
2018,05,12,00,14,10.50
2018,05,12,00,15,10.40
2018,05,12,00,16,10.40
2018,05,12,00,17,10.40
2018,05,12,00,18,10.40
2018,05,12,00,19,10.30
2018,05,12,00,20,10.30
2018,05,12,00,21,10.30
2018,05,12,00,22,10.30
2018,05,12,00,23,10.30
2018,05,12,00,24,10.30
2018,05,12,00,25,10.30
2018,05,12,00,26,10.30
2018,05,12,00,27,10.30
2018,05,12,00,28,10.30
2018,05,12,00,29,10.30
2018,05,12,00,30,10.30
2018,05,12,00,31,10.30
2018,05,12,00,32,10.20
2018,05,12,00,33,10.20
2018,05,12,00,34,10.20
2018,05,12,00,35,10.20
2018,05,12,00,36,10.20
2018,05,12,00,37,10.20
2018,05,12,00,38,10.20
2018,05,12,00,39,10.20
2018,05,12,00,40,10.20
2018,05,12,00,41,10.10
2018,05,12,00,42,10.10
2018,05,12,00,43,10.10
2018,05,12,00,44,10.00
2018,05,12,00,45,10.00
2018,05,12,00,46,10.00
2018,05,12,00,47,9.90
2018,05,12,00,48,9.90
2018,05,12,00,49,9.90
2018,05,12,00,50,9.90
2018,05,12,00,51,9.90
2018,05,12,00,52,9.90
2018,05,12,00,53,9.90
2018,05,12,00,54,9.90
2018,05,12,00,55,9.90
2018,05,12,00,56,9.90
2018,05,12,00,57,9.90
2018,05,12,00,58,9.90
2018,05,12,00,59,9.90
2018,05,12,01,00,9.90
2018,05,12,01,01,9.90
2018,05,12,01,02,10.00
2018,05,12,01,03,10.00
2018,05,12,01,04,10.00
2018,05,12,01,05,10.00
2018,05,12,01,06,9.90
2018,05,12,01,07,9.90
2018,05,12,01,08,9.90
2018,05,12,01,09,9.90
2018,05,12,01,10,9.90
2018,05,12,01,11,9.90
2018,05,12,01,12,9.90
2018,05,12,01,13,9.90
2018,05,12,01,14,9.90
2018,05,12,01,15,9.90
2018,05,12,01,16,9.90
2018,05,12,01,17,9.90
2018,05,12,01,18,9.90
2018,05,12,01,19,9.80
2018,05,12,01,20,9.90
2018,05,12,01,21,9.90
2018,05,12,01,22,9.90
2018,05,12,01,23,9.80
2018,05,12,01,24,9.80
2018,05,12,01,25,9.80
2018,05,12,01,26,9.80
2018,05,12,01,27,9.80
2018,05,12,01,28,9.80
2018,05,12,01,29,9.80
2018,05,12,01,30,9.80
2018,05,12,01,31,9.80
2018,05,12,01,32,9.80
2018,05,12,01,33,9.80
2018,05,12,01,34,9.80
2018,05,12,01,35,9.80
2018,05,12,01,36,9.80
2018,05,12,01,37,9.80
2018,05,12,01,38,9.70
2018,05,12,01,39,9.70
2018,05,12,01,40,9.70
2018,05,12,01,41,9.70
2018,05,12,01,42,9.70
2018,05,12,01,43,9.70
2018,05,12,01,44,9.80
2018,05,12,01,45,9.80
2018,05,12,01,46,9.80
2018,05,12,01,47,9.80
2018,05,12,01,48,9.80
2018,05,12,01,49,9.80
2018,05,12,01,50,9.80
2018,05,12,01,51,9.80
2018,05,12,01,52,9.80
2018,05,12,01,53,9.80
2018,05,12,01,54,9.80
2018,05,12,01,55,9.80
2018,05,12,01,56,9.80
2018,05,12,01,57,9.70
2018,05,12,01,58,9.70
2018,05,12,01,59,9.70
2018,05,12,02,00,9.70
2018,05,12,02,01,9.70
2018,05,12,02,02,9.70
2018,05,12,02,03,9.70
2018,05,12,02,04,9.60
2018,05,12,02,05,9.60
2018,05,12,02,06,9.60
2018,05,12,02,07,9.60
2018,05,12,02,08,9.60
2018,05,12,02,09,9.60
2018,05,12,02,10,9.60
2018,05,12,02,11,9.60
2018,05,12,02,12,9.60
2018,05,12,02,13,9.60
2018,05,12,02,14,9.60
2018,05,12,02,15,9.50
2018,05,12,02,16,9.50
2018,05,12,02,17,9.50
2018,05,12,02,18,9.60
2018,05,12,02,19,9.60
2018,05,12,02,20,9.60
2018,05,12,02,21,9.60
2018,05,12,02,22,9.50
2018,05,12,02,23,9.50
2018,05,12,02,24,9.50
2018,05,12,02,25,9.40
2018,05,12,02,26,9.40
2018,05,12,02,27,9.40
2018,05,12,02,28,9.40
2018,05,12,02,29,9.40
2018,05,12,02,30,9.40
2018,05,12,02,31,9.40
2018,05,12,02,32,9.40
2018,05,12,02,33,9.40
2018,05,12,02,34,9.40
2018,05,12,02,35,9.40
2018,05,12,02,36,9.40
2018,05,12,02,37,9.40
2018,05,12,02,38,9.40
2018,05,12,02,39,9.40
2018,05,12,02,40,9.40
2018,05,12,02,41,9.30
2018,05,12,02,42,9.30
2018,05,12,02,43,9.30
2018,05,12,02,44,9.30
2018,05,12,02,45,9.30
2018,05,12,02,46,9.30
2018,05,12,02,47,9.30
2018,05,12,02,48,9.30
2018,05,12,02,49,9.30
2018,05,12,02,50,9.30
2018,05,12,02,51,9.30
2018,05,12,02,52,9.30
2018,05,12,02,53,9.30
2018,05,12,02,54,9.30
2018,05,12,02,55,9.30
2018,05,12,02,56,9.30
2018,05,12,02,57,9.30
2018,05,12,02,58,9.30
2018,05,12,02,59,9.30
2018,05,12,03,00,9.20
2018,05,12,03,01,9.20
2018,05,12,03,02,9.20
2018,05,12,03,03,9.20
2018,05,12,03,04,9.20
2018,05,12,03,05,9.20
2018,05,12,03,06,9.20
2018,05,12,03,07,9.10
2018,05,12,03,08,9.10
2018,05,12,03,09,9.10
2018,05,12,03,10,9.10
2018,05,12,03,11,9.10
2018,05,12,03,12,9.10
2018,05,12,03,13,9.10
2018,05,12,03,14,9.00
2018,05,12,03,15,9.00
2018,05,12,03,16,9.00
2018,05,12,03,17,9.00
2018,05,12,03,18,8.90
2018,05,12,03,19,9.00
2018,05,12,03,20,9.00
2018,05,12,03,21,9.00
2018,05,12,03,22,9.00
2018,05,12,03,23,8.90
2018,05,12,03,24,8.90
2018,05,12,03,25,8.90
2018,05,12,03,26,8.90
2018,05,12,03,27,8.90
2018,05,12,03,28,8.80
2018,05,12,03,29,8.80
2018,05,12,03,30,8.80
2018,05,12,03,31,8.80
2018,05,12,03,32,8.80
2018,05,12,03,33,8.80
2018,05,12,03,34,8.80
2018,05,12,03,35,8.80
2018,05,12,03,36,8.80
2018,05,12,03,37,8.80
2018,05,12,03,38,8.80
2018,05,12,03,39,8.80
2018,05,12,03,40,8.80
2018,05,12,03,41,8.80
2018,05,12,03,42,8.80
2018,05,12,03,43,8.80
2018,05,12,03,44,8.80
2018,05,12,03,45,8.80
2018,05,12,03,46,8.80
2018,05,12,03,47,8.80
2018,05,12,03,48,8.80
2018,05,12,03,49,8.80
2018,05,12,03,50,8.80
2018,05,12,03,51,8.80
2018,05,12,03,52,8.70
2018,05,12,03,53,8.70
2018,05,12,03,54,8.70
2018,05,12,03,55,8.70
2018,05,12,03,56,8.70
2018,05,12,03,57,8.70
2018,05,12,03,58,8.70
2018,05,12,03,59,8.70
2018,05,12,04,00,8.70
2018,05,12,04,01,8.70
2018,05,12,04,02,8.70
2018,05,12,04,03,8.70
2018,05,12,04,04,8.70
2018,05,12,04,05,8.70
2018,05,12,04,06,8.70
2018,05,12,04,07,8.70
2018,05,12,04,08,8.70
2018,05,12,04,09,8.60
2018,05,12,04,10,8.60
2018,05,12,04,11,8.60
2018,05,12,04,12,8.60
2018,05,12,04,13,8.60
2018,05,12,04,14,8.50
2018,05,12,04,15,8.50
2018,05,12,04,16,8.50
2018,05,12,04,17,8.50
2018,05,12,04,18,8.40
2018,05,12,04,19,8.40
2018,05,12,04,20,8.40
2018,05,12,04,21,8.40
2018,05,12,04,22,8.40
2018,05,12,04,23,8.40
2018,05,12,04,24,8.40
2018,05,12,04,25,8.40
2018,05,12,04,26,8.40
2018,05,12,04,27,8.40
2018,05,12,04,28,8.40
2018,05,12,04,29,8.40
2018,05,12,04,30,8.40
2018,05,12,04,31,8.40
2018,05,12,04,32,8.50
2018,05,12,04,33,8.50
2018,05,12,04,34,8.40
2018,05,12,04,35,8.40
2018,05,12,04,36,8.40
2018,05,12,04,37,8.40
2018,05,12,04,38,8.40
2018,05,12,04,39,8.40
2018,05,12,04,40,8.40
2018,05,12,04,41,8.40
2018,05,12,04,42,8.30
2018,05,12,04,43,8.30
2018,05,12,04,44,8.30
2018,05,12,04,45,8.30
2018,05,12,04,46,8.30
2018,05,12,04,47,8.30
2018,05,12,04,48,8.30
2018,05,12,04,49,8.30
2018,05,12,04,50,8.30
2018,05,12,04,51,8.20
2018,05,12,04,52,8.20
2018,05,12,04,53,8.20
2018,05,12,04,54,8.20
2018,05,12,04,55,8.10
2018,05,12,04,56,8.10
2018,05,12,04,57,8.10
2018,05,12,04,58,8.10
2018,05,12,04,59,8.10
2018,05,12,05,00,8.10
2018,05,12,05,01,8.10
2018,05,12,05,02,8.10
2018,05,12,05,03,8.10
2018,05,12,05,04,8.10
2018,05,12,05,05,8.10
2018,05,12,05,06,8.10
2018,05,12,05,07,8.10
2018,05,12,05,08,8.10
2018,05,12,05,09,8.10
2018,05,12,05,10,8.10
2018,05,12,05,11,8.00
2018,05,12,05,12,8.10
2018,05,12,05,13,8.00
2018,05,12,05,14,8.10
2018,05,12,05,15,8.00
2018,05,12,05,16,8.00
2018,05,12,05,17,8.00
2018,05,12,05,18,8.00
2018,05,12,05,19,7.90
2018,05,12,05,20,7.90
2018,05,12,05,21,7.90
2018,05,12,05,22,7.90
2018,05,12,05,23,7.90
2018,05,12,05,24,7.90
2018,05,12,05,25,7.90
2018,05,12,05,26,7.90
2018,05,12,05,27,7.90
2018,05,12,05,28,7.90
2018,05,12,05,29,7.90
2018,05,12,05,30,7.90
2018,05,12,05,31,7.90
2018,05,12,05,32,7.90
2018,05,12,05,33,7.90
2018,05,12,05,34,7.90
2018,05,12,05,35,7.90
2018,05,12,05,36,7.90
2018,05,12,05,37,7.90
2018,05,12,05,38,7.90
2018,05,12,05,39,7.90
2018,05,12,05,40,7.90
2018,05,12,05,41,7.90
2018,05,12,05,42,7.90
2018,05,12,05,43,7.80
2018,05,12,05,44,7.80
2018,05,12,05,45,7.80
2018,05,12,05,46,7.80
2018,05,12,05,47,7.90
2018,05,12,05,48,7.90
2018,05,12,05,49,7.90
2018,05,12,05,50,7.90
2018,05,12,05,51,7.90
2018,05,12,05,52,7.90
2018,05,12,05,53,7.90
2018,05,12,05,54,7.90
2018,05,12,05,55,7.90
2018,05,12,05,56,7.90
2018,05,12,05,57,7.90
2018,05,12,05,58,7.90
2018,05,12,05,59,7.90
2018,05,12,06,00,7.90
2018,05,12,06,01,7.90
2018,05,12,06,02,7.90
2018,05,12,06,03,8.00
2018,05,12,06,04,8.00
2018,05,12,06,05,8.00
2018,05,12,06,06,8.00
2018,05,12,06,07,8.00
2018,05,12,06,08,8.00
2018,05,12,06,09,8.10
2018,05,12,06,10,8.10
2018,05,12,06,11,8.10
2018,05,12,06,12,8.10
2018,05,12,06,13,8.10
2018,05,12,06,14,8.10
2018,05,12,06,15,8.10
2018,05,12,06,16,8.10
2018,05,12,06,17,8.10
2018,05,12,06,18,8.10
2018,05,12,06,19,8.10
2018,05,12,06,20,8.10
2018,05,12,06,21,8.10
2018,05,12,06,22,8.20
2018,05,12,06,23,8.20
2018,05,12,06,24,8.20
2018,05,12,06,25,8.30
2018,05,12,06,26,8.40
2018,05,12,06,27,8.50
2018,05,12,06,28,8.60
2018,05,12,06,29,8.70
2018,05,12,06,30,8.80
2018,05,12,06,31,8.80
2018,05,12,06,32,8.90
2018,05,12,06,33,8.90
2018,05,12,06,34,8.90
2018,05,12,06,35,9.00
2018,05,12,06,36,9.10
2018,05,12,06,37,9.10
2018,05,12,06,38,9.20
2018,05,12,06,39,9.30
2018,05,12,06,40,9.30
2018,05,12,06,41,9.30
2018,05,12,06,42,9.40
2018,05,12,06,43,9.40
2018,05,12,06,44,9.40
2018,05,12,06,45,9.40
2018,05,12,06,46,9.50
2018,05,12,06,47,9.50
2018,05,12,06,48,9.50
2018,05,12,06,49,9.50
2018,05,12,06,50,9.50
2018,05,12,06,51,9.50
2018,05,12,06,52,9.60
2018,05,12,06,53,9.70
2018,05,12,06,54,9.80
2018,05,12,06,55,9.80
2018,05,12,06,56,9.90
2018,05,12,06,57,10.00
2018,05,12,06,58,10.10
2018,05,12,06,59,10.10
2018,05,12,07,00,10.20
2018,05,12,07,01,10.30
2018,05,12,07,02,10.30
2018,05,12,07,03,10.30
2018,05,12,07,04,10.40
2018,05,12,07,05,10.40
2018,05,12,07,06,10.50
2018,05,12,07,07,10.60
2018,05,12,07,08,10.70
2018,05,12,07,09,10.80
2018,05,12,07,10,10.90
2018,05,12,07,11,11.00
2018,05,12,07,12,11.00
2018,05,12,07,13,11.00
2018,05,12,07,14,11.10
2018,05,12,07,15,11.10
2018,05,12,07,16,11.10
2018,05,12,07,17,11.20
2018,05,12,07,18,11.20
2018,05,12,07,19,11.30
2018,05,12,07,20,11.30
2018,05,12,07,21,11.30
2018,05,12,07,22,11.40
2018,05,12,07,23,11.40
2018,05,12,07,24,11.40
2018,05,12,07,25,11.50
2018,05,12,07,26,11.50
2018,05,12,07,27,11.60
2018,05,12,07,28,11.60
2018,05,12,07,29,11.70
2018,05,12,07,30,11.70
2018,05,12,07,31,11.60
2018,05,12,07,32,11.60
2018,05,12,07,33,11.60
2018,05,12,07,34,11.60
2018,05,12,07,35,11.60
2018,05,12,07,36,11.60
2018,05,12,07,37,11.70
2018,05,12,07,38,11.70
2018,05,12,07,39,11.70
2018,05,12,07,40,11.80
2018,05,12,07,41,11.90
2018,05,12,07,42,11.90
2018,05,12,07,43,12.00
2018,05,12,07,44,12.10
2018,05,12,07,45,12.20
2018,05,12,07,46,12.30
2018,05,12,07,47,12.40
2018,05,12,07,48,12.40
2018,05,12,07,49,12.50
2018,05,12,07,50,12.60
2018,05,12,07,51,12.70
2018,05,12,07,52,12.70
2018,05,12,07,53,12.90
2018,05,12,07,54,13.00
2018,05,12,07,55,13.20
2018,05,12,07,56,13.30
2018,05,12,07,57,13.40
2018,05,12,07,58,13.50
2018,05,12,07,59,13.60
2018,05,12,08,00,13.60
2018,05,12,08,01,13.60
2018,05,12,08,02,13.60
2018,05,12,08,03,13.70
2018,05,12,08,04,13.80
2018,05,12,08,05,13.90
2018,05,12,08,06,13.90
2018,05,12,08,07,14.00
2018,05,12,08,08,14.10
2018,05,12,08,09,14.20
2018,05,12,08,10,14.20
2018,05,12,08,11,14.30
2018,05,12,08,12,14.30
2018,05,12,08,13,14.40
2018,05,12,08,14,14.40
2018,05,12,08,15,14.50
2018,05,12,08,16,14.50
2018,05,12,08,17,14.50
2018,05,12,08,18,14.60
2018,05,12,08,19,14.60
2018,05,12,08,20,14.70
2018,05,12,08,21,14.70
2018,05,12,08,22,14.70
2018,05,12,08,23,14.70
2018,05,12,08,24,14.70
2018,05,12,08,25,14.70
2018,05,12,08,26,14.70
2018,05,12,08,27,14.70
2018,05,12,08,28,14.80
2018,05,12,08,29,14.90
2018,05,12,08,30,14.90
2018,05,12,08,31,14.90
2018,05,12,08,32,14.90
2018,05,12,08,33,14.90
2018,05,12,08,34,14.90
2018,05,12,08,35,14.90
2018,05,12,08,36,14.90
2018,05,12,08,37,14.90
2018,05,12,08,38,14.90
2018,05,12,08,39,14.90
2018,05,12,08,40,14.90
2018,05,12,08,41,14.90
2018,05,12,08,42,14.90
2018,05,12,08,43,15.00
2018,05,12,08,44,15.00
2018,05,12,08,45,15.10
2018,05,12,08,46,15.10
2018,05,12,08,47,15.10
2018,05,12,08,48,15.10
2018,05,12,08,49,15.10
2018,05,12,08,50,15.10
2018,05,12,08,51,15.20
2018,05,12,08,52,15.20
2018,05,12,08,53,15.20
2018,05,12,08,54,15.20
2018,05,12,08,55,15.20
2018,05,12,08,56,15.30
2018,05,12,08,57,15.30
2018,05,12,08,58,15.30
2018,05,12,08,59,15.30
2018,05,12,09,00,15.30
2018,05,12,09,01,15.20
2018,05,12,09,02,15.20
2018,05,12,09,03,15.20
2018,05,12,09,04,15.30
2018,05,12,09,05,15.30
2018,05,12,09,06,15.40
2018,05,12,09,07,15.60
2018,05,12,09,08,15.70
2018,05,12,09,09,15.70
2018,05,12,09,10,15.70
2018,05,12,09,11,15.70
2018,05,12,09,12,15.70
2018,05,12,09,13,15.80
2018,05,12,09,14,15.80
2018,05,12,09,15,15.90
2018,05,12,09,16,16.00
2018,05,12,09,17,16.00
2018,05,12,09,18,16.10
2018,05,12,09,19,16.20
2018,05,12,09,20,16.20
2018,05,12,09,21,16.20
2018,05,12,09,22,16.30
2018,05,12,09,23,16.20
2018,05,12,09,24,16.20
2018,05,12,09,25,16.20
2018,05,12,09,26,16.10
2018,05,12,09,27,16.10
2018,05,12,09,28,16.10
2018,05,12,09,29,16.10
2018,05,12,09,30,16.10
2018,05,12,09,31,16.00
2018,05,12,09,32,16.00
2018,05,12,09,33,16.10
2018,05,12,09,34,16.20
2018,05,12,09,35,16.20
2018,05,12,09,36,16.20
2018,05,12,09,37,16.10
2018,05,12,09,38,16.10
2018,05,12,09,39,16.10
2018,05,12,09,40,16.10
2018,05,12,09,41,16.10
2018,05,12,09,42,16.10
2018,05,12,09,43,16.10
2018,05,12,09,44,16.00
2018,05,12,09,45,16.00
2018,05,12,09,46,15.90
2018,05,12,09,47,15.90
2018,05,12,09,48,15.90
2018,05,12,09,49,15.90
2018,05,12,09,50,15.90
2018,05,12,09,51,15.90
2018,05,12,09,52,15.90
2018,05,12,09,53,15.90
2018,05,12,09,54,15.90
2018,05,12,09,55,15.90
2018,05,12,09,56,16.00
2018,05,12,09,57,16.00
2018,05,12,09,58,16.00
2018,05,12,09,59,15.90
2018,05,12,10,00,15.90
2018,05,12,10,01,15.90
2018,05,12,10,02,15.90
2018,05,12,10,03,16.00
2018,05,12,10,04,16.00
2018,05,12,10,05,16.00
2018,05,12,10,06,16.00
2018,05,12,10,07,16.10
2018,05,12,10,08,16.20
2018,05,12,10,09,16.40
2018,05,12,10,10,16.40
2018,05,12,10,11,16.40
2018,05,12,10,12,16.40
2018,05,12,10,13,16.50
2018,05,12,10,14,16.60
2018,05,12,10,15,16.60
2018,05,12,10,16,16.80
2018,05,12,10,17,16.80
2018,05,12,10,18,16.80
2018,05,12,10,19,16.80
2018,05,12,10,20,16.70
2018,05,12,10,21,16.60
2018,05,12,10,22,16.50
2018,05,12,10,23,16.50
2018,05,12,10,24,16.60
2018,05,12,10,25,16.80
2018,05,12,10,26,16.80
2018,05,12,10,27,16.80
2018,05,12,10,28,16.80
2018,05,12,10,29,16.70
2018,05,12,10,30,16.60
2018,05,12,10,31,16.60
2018,05,12,10,32,16.60
2018,05,12,10,33,16.80
2018,05,12,10,34,16.80
2018,05,12,10,35,16.70
2018,05,12,10,36,16.70
2018,05,12,10,37,16.70
2018,05,12,10,38,16.70
2018,05,12,10,39,16.60
2018,05,12,10,40,16.70
2018,05,12,10,41,16.80
2018,05,12,10,42,16.80
2018,05,12,10,43,16.80
2018,05,12,10,44,16.80
2018,05,12,10,45,16.70
2018,05,12,10,46,16.60
2018,05,12,10,47,16.60
2018,05,12,10,48,16.60
2018,05,12,10,49,16.60
2018,05,12,10,50,16.70
2018,05,12,10,51,16.80
2018,05,12,10,52,16.80
2018,05,12,10,53,16.80
2018,05,12,10,54,16.80
2018,05,12,10,55,16.80
2018,05,12,10,56,16.80
2018,05,12,10,57,16.70
2018,05,12,10,58,16.80
2018,05,12,10,59,16.70
2018,05,12,11,00,16.60
2018,05,12,11,01,16.60
2018,05,12,11,02,16.70
2018,05,12,11,03,16.70
2018,05,12,11,04,16.70
2018,05,12,11,05,16.70
2018,05,12,11,06,16.60
2018,05,12,11,07,16.60
2018,05,12,11,08,16.50
2018,05,12,11,09,16.40
2018,05,12,11,10,16.40
2018,05,12,11,11,16.50
2018,05,12,11,12,16.60
2018,05,12,11,13,16.70
2018,05,12,11,14,16.70
2018,05,12,11,15,16.70
2018,05,12,11,16,16.60
2018,05,12,11,17,16.50
2018,05,12,11,18,16.40
2018,05,12,11,19,16.40
2018,05,12,11,20,16.50
2018,05,12,11,21,16.70
2018,05,12,11,22,16.80
2018,05,12,11,23,16.80
2018,05,12,11,24,16.70
2018,05,12,11,25,16.80
2018,05,12,11,26,16.90
2018,05,12,11,27,17.00
2018,05,12,11,28,17.10
2018,05,12,11,29,17.30
2018,05,12,11,30,17.40
2018,05,12,11,31,17.40
2018,05,12,11,32,17.40
2018,05,12,11,33,17.20
2018,05,12,11,34,17.10
2018,05,12,11,35,17.10
2018,05,12,11,36,17.10
2018,05,12,11,37,17.10
2018,05,12,11,38,17.10
2018,05,12,11,39,17.20
2018,05,12,11,40,17.20
2018,05,12,11,41,17.20
2018,05,12,11,42,17.20
2018,05,12,11,43,17.20
2018,05,12,11,44,17.10
2018,05,12,11,45,17.20
2018,05,12,11,46,17.30
2018,05,12,11,47,17.30
2018,05,12,11,48,17.30
2018,05,12,11,49,17.30
2018,05,12,11,50,17.30
2018,05,12,11,51,17.30
2018,05,12,11,52,17.30
2018,05,12,11,53,17.30
2018,05,12,11,54,17.30
2018,05,12,11,55,17.30
2018,05,12,11,56,17.50
2018,05,12,11,57,17.60
2018,05,12,11,58,17.70
2018,05,12,11,59,17.60
2018,05,12,12,00,17.60
2018,05,12,12,01,17.60
2018,05,12,12,02,17.70
2018,05,12,12,03,17.80
2018,05,12,12,04,17.80
2018,05,12,12,05,17.80
2018,05,12,12,06,17.80
2018,05,12,12,07,18.00
2018,05,12,12,08,18.00
2018,05,12,12,09,18.10
2018,05,12,12,10,18.10
2018,05,12,12,11,18.10
2018,05,12,12,12,18.10
2018,05,12,12,13,18.10
2018,05,12,12,14,18.10
2018,05,12,12,15,18.10
2018,05,12,12,16,18.00
2018,05,12,12,17,17.90
2018,05,12,12,18,17.80
2018,05,12,12,19,17.80
2018,05,12,12,20,18.00
2018,05,12,12,21,18.10
2018,05,12,12,22,18.20
2018,05,12,12,23,18.30
2018,05,12,12,24,18.30
2018,05,12,12,25,18.30
2018,05,12,12,26,18.30
2018,05,12,12,27,18.20
2018,05,12,12,28,18.30
2018,05,12,12,29,18.40
2018,05,12,12,30,18.40
2018,05,12,12,31,18.50
2018,05,12,12,32,18.60
2018,05,12,12,33,18.60
2018,05,12,12,34,18.60
2018,05,12,12,35,18.70
2018,05,12,12,36,18.70
2018,05,12,12,37,18.70
2018,05,12,12,38,18.80
2018,05,12,12,39,18.80
2018,05,12,12,40,18.80
2018,05,12,12,41,18.90
2018,05,12,12,42,18.90
2018,05,12,12,43,19.00
2018,05,12,12,44,19.10
2018,05,12,12,45,19.10
2018,05,12,12,46,19.20
2018,05,12,12,47,19.30
2018,05,12,12,48,19.50
2018,05,12,12,49,19.70
2018,05,12,12,50,19.70
2018,05,12,12,51,19.70
2018,05,12,12,52,19.70
2018,05,12,12,53,19.80
2018,05,12,12,54,19.80
2018,05,12,12,55,19.90
2018,05,12,12,56,19.90
2018,05,12,12,57,19.90
2018,05,12,12,58,19.70
2018,05,12,12,59,19.80
2018,05,12,13,00,19.80
2018,05,12,13,01,19.80
2018,05,12,13,02,19.80
2018,05,12,13,03,19.70
2018,05,12,13,04,19.70
2018,05,12,13,05,19.70
2018,05,12,13,06,19.80
2018,05,12,13,07,19.80
2018,05,12,13,08,19.80
2018,05,12,13,09,19.80
2018,05,12,13,10,19.80
2018,05,12,13,11,19.80
2018,05,12,13,12,19.90
2018,05,12,13,13,20.00
2018,05,12,13,14,20.00
2018,05,12,13,15,19.90
2018,05,12,13,16,19.90
2018,05,12,13,17,19.90
2018,05,12,13,18,19.90
2018,05,12,13,19,19.90
2018,05,12,13,20,19.90
2018,05,12,13,21,19.90
2018,05,12,13,22,19.90
2018,05,12,13,23,19.90
2018,05,12,13,24,20.00
2018,05,12,13,25,20.10
2018,05,12,13,26,20.10
2018,05,12,13,27,20.00
2018,05,12,13,28,19.90
2018,05,12,13,29,19.80
2018,05,12,13,30,19.80
2018,05,12,13,31,19.70
2018,05,12,13,32,19.70
2018,05,12,13,33,19.80
2018,05,12,13,34,19.90
2018,05,12,13,35,20.00
2018,05,12,13,36,20.10
2018,05,12,13,37,20.20
2018,05,12,13,38,20.20
2018,05,12,13,39,20.30
2018,05,12,13,40,20.30
2018,05,12,13,41,20.40
2018,05,12,13,42,20.30
2018,05,12,13,43,20.30
2018,05,12,13,44,20.40
2018,05,12,13,45,20.40
2018,05,12,13,46,20.40
2018,05,12,13,47,20.60
2018,05,12,13,48,20.70
2018,05,12,13,49,20.80
2018,05,12,13,50,21.00
2018,05,12,13,51,21.10
2018,05,12,13,52,21.10
2018,05,12,13,53,21.20
2018,05,12,13,54,21.20
2018,05,12,13,55,21.10
2018,05,12,13,56,21.00
2018,05,12,13,57,20.90
2018,05,12,13,58,20.90
2018,05,12,13,59,21.00
2018,05,12,14,00,21.10
2018,05,12,14,01,21.10
2018,05,12,14,02,21.10
2018,05,12,14,03,21.20
2018,05,12,14,04,21.30
2018,05,12,14,05,21.30
2018,05,12,14,06,21.30
2018,05,12,14,07,21.30
2018,05,12,14,08,21.30
2018,05,12,14,09,21.30
2018,05,12,14,10,21.20
2018,05,12,14,11,21.20
2018,05,12,14,12,21.30
2018,05,12,14,13,21.40
2018,05,12,14,14,21.50
2018,05,12,14,15,21.60
2018,05,12,14,16,21.80
2018,05,12,14,17,21.90
2018,05,12,14,18,21.90
2018,05,12,14,19,22.00
2018,05,12,14,20,22.00
2018,05,12,14,21,22.10
2018,05,12,14,22,22.00
2018,05,12,14,23,21.90
2018,05,12,14,24,21.90
2018,05,12,14,25,21.90
2018,05,12,14,26,21.90
2018,05,12,14,27,21.80
2018,05,12,14,28,21.60
2018,05,12,14,29,21.40
2018,05,12,14,30,21.20
2018,05,12,14,31,21.20
2018,05,12,14,32,21.30
2018,05,12,14,33,21.20
2018,05,12,14,34,21.20
2018,05,12,14,35,21.30
2018,05,12,14,36,21.40
2018,05,12,14,37,21.50
2018,05,12,14,38,21.60
2018,05,12,14,39,21.70
2018,05,12,14,40,21.70
2018,05,12,14,41,21.70
2018,05,12,14,42,21.80
2018,05,12,14,43,21.70
2018,05,12,14,44,21.60
2018,05,12,14,45,21.50
2018,05,12,14,46,21.30
2018,05,12,14,47,21.30
2018,05,12,14,48,21.40
2018,05,12,14,49,21.50
2018,05,12,14,50,21.60
2018,05,12,14,51,21.70
2018,05,12,14,52,21.80
2018,05,12,14,53,21.70
2018,05,12,14,54,21.60
2018,05,12,14,55,21.50
2018,05,12,14,56,21.30
2018,05,12,14,57,21.10
2018,05,12,14,58,20.90
2018,05,12,14,59,20.80
2018,05,12,15,00,20.80
2018,05,12,15,01,20.90
2018,05,12,15,02,21.10
2018,05,12,15,03,21.20
2018,05,12,15,04,21.30
2018,05,12,15,05,21.40
2018,05,12,15,06,21.50
2018,05,12,15,07,21.60
2018,05,12,15,08,21.80
2018,05,12,15,09,22.00
2018,05,12,15,10,22.20
2018,05,12,15,11,22.40
2018,05,12,15,12,22.40
2018,05,12,15,13,22.30
2018,05,12,15,14,22.20
2018,05,12,15,15,22.10
2018,05,12,15,16,22.10
2018,05,12,15,17,22.20
2018,05,12,15,18,22.20
2018,05,12,15,19,22.20
2018,05,12,15,20,22.20
2018,05,12,15,21,22.30
2018,05,12,15,22,22.40
2018,05,12,15,23,22.50
2018,05,12,15,24,22.60
2018,05,12,15,25,22.70
2018,05,12,15,26,22.70
2018,05,12,15,27,22.70
2018,05,12,15,28,22.70
2018,05,12,15,29,22.70
2018,05,12,15,30,22.70
2018,05,12,15,31,22.70
2018,05,12,15,32,22.60
2018,05,12,15,33,22.50
2018,05,12,15,34,22.30
2018,05,12,15,35,22.20
2018,05,12,15,36,22.10
2018,05,12,15,37,22.10
2018,05,12,15,38,22.10
2018,05,12,15,39,22.10
2018,05,12,15,40,22.10
2018,05,12,15,41,22.20
2018,05,12,15,42,22.20
2018,05,12,15,43,22.20
2018,05,12,15,44,22.30
2018,05,12,15,45,22.30
2018,05,12,15,46,22.40
2018,05,12,15,47,22.50
2018,05,12,15,48,22.50
2018,05,12,15,49,22.60
2018,05,12,15,50,22.80
2018,05,12,15,51,22.90
2018,05,12,15,52,23.00
2018,05,12,15,53,23.10
2018,05,12,15,54,23.10
2018,05,12,15,55,23.10
2018,05,12,15,56,23.20
2018,05,12,15,57,23.20
2018,05,12,15,58,23.10
2018,05,12,15,59,23.10
2018,05,12,16,00,23.10
2018,05,12,16,01,23.00
2018,05,12,16,02,22.90
2018,05,12,16,03,22.70
2018,05,12,16,04,22.70
2018,05,12,16,05,22.70
2018,05,12,16,06,22.70
2018,05,12,16,07,22.70
2018,05,12,16,08,22.60
2018,05,12,16,09,22.60
2018,05,12,16,10,22.60
2018,05,12,16,11,22.60
2018,05,12,16,12,22.60
2018,05,12,16,13,22.60
2018,05,12,16,14,22.70
2018,05,12,16,15,22.80
2018,05,12,16,16,22.80
2018,05,12,16,17,22.90
2018,05,12,16,18,22.90
2018,05,12,16,19,22.90
2018,05,12,16,20,22.90
2018,05,12,16,21,22.80
2018,05,12,16,22,22.80
2018,05,12,16,23,22.90
2018,05,12,16,24,23.00
2018,05,12,16,25,23.10
2018,05,12,16,26,23.10
2018,05,12,16,27,23.00
2018,05,12,16,28,22.90
2018,05,12,16,29,22.80
2018,05,12,16,30,22.70
2018,05,12,16,31,22.60
2018,05,12,16,32,22.50
2018,05,12,16,33,22.60
2018,05,12,16,34,22.60
2018,05,12,16,35,22.70
2018,05,12,16,36,22.70
2018,05,12,16,37,22.70
2018,05,12,16,38,22.80
2018,05,12,16,39,23.00
2018,05,12,16,40,23.10
2018,05,12,16,41,23.10
2018,05,12,16,42,23.00
2018,05,12,16,43,22.90
2018,05,12,16,44,22.80
2018,05,12,16,45,22.70
2018,05,12,16,46,22.70
2018,05,12,16,47,22.70
2018,05,12,16,48,22.70
2018,05,12,16,49,22.80
2018,05,12,16,50,22.90
2018,05,12,16,51,22.90
2018,05,12,16,52,23.00
2018,05,12,16,53,23.00
2018,05,12,16,54,22.90
2018,05,12,16,55,22.90
2018,05,12,16,56,22.90
2018,05,12,16,57,22.90
2018,05,12,16,58,23.00
2018,05,12,16,59,23.00
2018,05,12,17,00,23.10
2018,05,12,17,01,23.20
2018,05,12,17,02,23.20
2018,05,12,17,03,23.30
2018,05,12,17,04,23.30
2018,05,12,17,05,23.30
2018,05,12,17,06,23.40
2018,05,12,17,07,23.40
2018,05,12,17,08,23.50
2018,05,12,17,09,23.50
2018,05,12,17,10,23.60
2018,05,12,17,11,23.60
2018,05,12,17,12,23.70
2018,05,12,17,13,23.70
2018,05,12,17,14,23.80
2018,05,12,17,15,23.80
2018,05,12,17,16,23.80
2018,05,12,17,17,23.80
2018,05,12,17,18,23.70
2018,05,12,17,19,23.70
2018,05,12,17,20,23.60
2018,05,12,17,21,23.60
2018,05,12,17,22,23.60
2018,05,12,17,23,23.60
2018,05,12,17,24,23.60
2018,05,12,17,25,23.60
2018,05,12,17,26,23.50
2018,05,12,17,27,23.30
2018,05,12,17,28,23.30
2018,05,12,17,29,23.30
2018,05,12,17,30,23.30
2018,05,12,17,31,23.20
2018,05,12,17,32,23.20
2018,05,12,17,33,23.20
2018,05,12,17,34,23.20
2018,05,12,17,35,23.20